Flag for Guinea Weather past 2 weeks in Conakry, Guinea

Now
77 °F

Light rain. Mostly cloudy.


Feels Like: 78 °F
Forecast: N/A
Wind: 12 mph from West

Location: Conakry / Gbessia

Current Time: Jul 22, 2014 at 8:48:16 PM

Latest Report: Jul 22, 2014 at 5:00 PM


Visibility: 3 mi

Pressure: 29.95 "Hg

Humidity: 100%

Dew point: 77 °F

Location of ConakryLocation

Historic Weather in Conakry — Graph

°F

Conakry temperature yesterday

Maximum temperature yesterday: 86 °F (at 2:00 PM)
Minimum temperature yesterday: 75 °F (at 10:00 PM)
Average temperature yesterday: 81 °F

Past Weeks' High & Low Weather Summary

 TemperatureHumidityPressure
High86 °F (Jul 7, 4:00 PM)100% (Jul 8, 9:00 AM)30.07 "Hg (Jul 8, 9:00 AM)
Low72 °F (Jul 17, 5:00 AM)62% (Jul 20, 4:00 PM)29.89 "Hg (Jul 21, 6:00 PM)
Average79 °F89%29.98 "Hg
* Reported Jul 7 4:00 PM — Jul 22 4:00 PM, Conakry, Weather by CustomWeather, © 2014

Note: Actual official high and low records may vary slightly from our data, if they occured in-between our weather recording intervals... More about our weather records

Advertising

Conakry weather history for previous 24 hours

 ConditionsComfort  
Time TempWeatherWind HumidityBarometerVisibility
4:00 PM
Jul 22
77 °FLight rain. Mostly cloudy.9 mph100%29.95 "Hg2 mi
3:00 PM79 °FRain. Mostly cloudy.16 mph94%29.98 "Hg1 mi
2:00 PM82 °FBroken clouds.9 mph79%29.98 "HgN/A
1:00 PM82 °FBroken clouds.7 mph89%29.98 "HgN/A
12:00 PM81 °FPartly sunny.7 mph94%30.01 "HgN/A
11:00 AM79 °FLight rain. Partly sunny.7 mph94%30.01 "Hg5 mi
10:00 AM79 °FLight rain. Partly sunny.9 mph89%29.98 "Hg5 mi
9:00 AM77 °FBroken clouds.7 mph94%29.98 "HgN/A
8:00 AM77 °FBroken clouds.5 mph94%29.98 "HgN/A
7:00 AM77 °FBroken clouds.5 mph94%29.95 "HgN/A
6:00 AM75 °FPartly cloudy.2 mph94%29.95 "HgN/A
5:00 AM75 °FThunderstorms. Partly cloudy.No wind89%29.92 "HgN/A
4:00 AM75 °FPartly cloudy.5 mph89%29.92 "HgN/A
3:00 AM77 °FThunderstorms. Partly cloudy.7 mph89%29.92 "HgN/A
2:00 AM75 °FThunderstorms. Partly cloudy.7 mph94%29.95 "HgN/A
1:00 AM75 °FThunderstorms. Partly cloudy.5 mph94%29.98 "Hg5 mi
12:00 AM75 °FThunderstorms. Passing clouds.9 mph100%29.98 "Hg5 mi
11:00 PM
Jul 21
75 °FThunderstorms. Partly cloudy.9 mph94%29.98 "HgN/A
10:00 PM75 °FThunderstorms. Partly cloudy.5 mph94%29.95 "HgN/A
9:00 PM82 °FThunderstorms. Partly cloudy.7 mph84%30.01 "Hg5 mi
8:00 PM82 °FPartly cloudy.5 mph84%29.95 "HgN/A
Weather by CustomWeather, © 2014

See weather overviewHow to use our weather pages